Temp
64 65 65 64 63 63 62 63 62 57 61 64 62 65 66 66 67 68 67 70 70 69 68 68 68 69 70 71 71 71 72 72 72 72 72 72 73 74
64 64 64 63 63 63 62 61 61 61 59 62 65 64 66 68 70 68 67 70 70 68 68 67 68 68 69 69 69 69 70 70 70 70 70 70 71 71
65 65 65 64 63 66 63 61 61 61 60 63 65 66 65 65 67 67 68 65 65 68 68 67 67 67 67 67 67 67 68 68 68 69 70 70 70 70
65 65 65 67 64 64 65 63 63 62 65 64 65 65 65 64 64 64 67 70 68 70 67 66 65 65 64 64 64 64 63 64 65 65 66 68 68 69
65 64 65 65 63 63 63 62 62 63 63 62 63 64 65 64 66 65 64 64 68 70 69 68 66 66 65 65 64 63 61 61 61 61 62 63 65 66
66 66 65 65 64 64 64 63 62 62 63 62 61 61 63 65 64 63 64 63 64 69 69 66 66 66 65 63 63 63 61 60 58 58 59 59 60 62
67 68 66 67 68 66 65 63 63 62 61 61 61 62 63 62 62 63 61 58 59 61 59 61 59 59 60 62 65 66 63 61 60 59 58 57 57 58
66 65 66 69 68 67 67 66 65 63 60 59 60 60 61 62 61 60 59 57 55 61 56 57 58 59 59 59 64 63 62 61 60 59 58 57 57 57
65 67 67 70 67 66 65 65 65 65 65 62 60 62 61 61 60 57 56 55 55 57 56 53 55 55 60 61 63 63 62 61 61 60 58 57 57 56
68 67 68 68 67 65 63 62 63 64 63 65 65 65 62 63 60 59 58 56 55 57 55 51 56 56 59 57 62 63 61 61 60 59 59 57 55 54
68 68 68 67 63 62 64 62 61 61 62 61 61 61 60 60 60 57 56 54 52 53 54 52 53 52 52 56 60 62 60 59 58 58 58 57 54 53
66 66 63 65 59 59 63 61 61 61 60 61 60 59 59 59 61 58 57 54 51 49 53 52 50 50 49 51 52 55 54 57 56 55 56 55 53 52
66 65 65 58 55 55 58 62 60 61 61 59 58 57 56 56 56 55 55 54 51 50 55 53 49 47 46 46 48 52 53 56 55 54 54 53 52 53
66 65 62 56 53 53 55 57 55 59 57 56 54 53 52 53 55 55 54 54 54 55 55 52 50 47 45 44 46 50 52 53 52 54 54 53 52 53
62 61 58 53 51 53 54 54 54 56 54 54 52 51 52 54 53 53 54 53 52 52 55 50 48 47 46 45 48 48 48 51 52 51 52 52 53 55
58 57 57 56 56 55 55 55 55 55 53 52 51 51 52 51 51 50 50 49 47 50 53 51 48 46 46 47 47 48 51 47 52 54 53 54 58 59
58 59 57 55 55 54 53 53 52 52 52 50 51 51 51 50 50 49 48 46 45 45 46 49 50 46 46 47 46 49 49 48 51 52 52 52 53 54
59 58 57 55 55 54 53 52 51 54 51 51 51 51 50 49 48 47 46 45 44 44 43 44 44 46 47 49 54 48 46 46 50 51 50 48 48 53
58 57 56 54 54 53 53 52 53 53 52 52 51 49 49 48 48 47 46 44 45 43 44 43 41 42 41 41 47 54 46 47 47 47 48 48 47 50
56 55 55 55 54 54 53 53 52 51 50 49 48 48 47 48 47 46 45 43 43 43 43 43 42 42 41 42 44 46 50 45 46 45 45 49 51 53
54 54 54 53 52 51 50 50 49 48 48 48 47 47 46 46 45 45 44 47 45 42 43 44 46 52 43 45 43 42 45 49 48 45 45 45 44 44
53 53 51 50 50 51 50 49 48 48 47 47 46 45 45 45 45 45 44 44 43 42 42 44 44 45 44 42 40 40 44 44 50 52 52 51 44 39
52 51 51 51 50 50 49 48 48 47 46 46 45 44 44 45 44 44 44 44 43 43 42 43 43 43 43 41 42 39 40 43 44 44 49 52 52 50
MSLP
1018.18 1018.47 1018.71 1018.90 1019.09 1019.24 1019.43 1019.69 1020.11 1021.07 1021.01 1020.28 1020.11 1019.47 1019.38 1019.37 1019.43 1019.65 1019.77 1019.70 1019.73 1019.84 1019.93 1019.91 1019.91 1019.83 1019.83 1019.86 1019.87 1019.80 1019.71 1019.56 1019.49 1019.43 1019.44 1019.50 1019.59 1019.63
1017.97 1018.29 1018.50 1018.74 1019.11 1019.33 1019.38 1019.46 1019.75 1020.13 1020.60 1020.16 1019.94 1019.57 1019.20 1019.11 1019.20 1019.29 1019.37 1019.39 1019.50 1019.59 1019.62 1019.52 1019.41 1019.38 1019.41 1019.36 1019.32 1019.24 1019.18 1019.13 1019.04 1018.90 1018.86 1018.99 1019.10 1019.20
1017.59 1017.89 1018.11 1018.35 1018.74 1019.04 1019.25 1019.55 1019.79 1019.88 1020.11 1019.76 1019.86 1019.53 1019.34 1019.30 1019.29 1019.31 1019.28 1019.38 1019.34 1019.30 1019.22 1019.16 1019.08 1018.99 1019.01 1018.99 1018.86 1018.73 1018.64 1018.64 1018.64 1018.55 1018.57 1018.47 1018.43 1018.57
1017.13 1017.48 1017.69 1017.99 1018.44 1018.74 1019.03 1019.22 1019.32 1019.50 1019.78 1019.87 1019.62 1019.58 1019.52 1019.38 1019.36 1019.43 1019.18 1018.98 1019.00 1018.86 1018.76 1018.71 1018.74 1018.78 1018.72 1018.66 1018.62 1018.42 1018.34 1018.15 1018.02 1018.02 1018.09 1018.09 1018.03 1018.04
1016.54 1016.98 1017.18 1017.61 1018.15 1018.37 1018.49 1018.78 1019.02 1019.16 1019.29 1019.67 1019.72 1019.63 1019.67 1019.60 1019.50 1019.30 1019.28 1019.01 1018.74 1018.60 1018.37 1018.42 1018.47 1018.41 1018.35 1018.31 1018.19 1018.07 1017.89 1017.85 1017.74 1017.69 1017.60 1017.53 1017.51 1017.55
1015.77 1016.01 1016.39 1016.88 1017.32 1017.70 1018.01 1018.21 1018.55 1019.06 1019.29 1019.38 1019.50 1019.65 1019.63 1019.52 1019.63 1019.56 1019.31 1019.34 1019.11 1018.62 1018.54 1018.46 1018.26 1018.24 1018.27 1018.13 1018.01 1017.79 1017.61 1017.52 1017.51 1017.24 1017.03 1016.93 1016.86 1016.83
1015.06 1015.50 1015.81 1016.07 1016.35 1016.67 1017.35 1017.75 1018.11 1018.50 1018.74 1018.92 1019.09 1019.08 1019.16 1019.33 1019.52 1019.33 1019.51 1019.25 1018.85 1018.71 1018.59 1018.34 1018.20 1018.17 1017.88 1017.66 1017.57 1017.31 1017.19 1017.19 1016.94 1016.69 1016.53 1016.58 1016.43 1016.34
1014.54 1015.16 1015.44 1015.78 1015.92 1016.16 1016.47 1016.88 1017.26 1017.69 1017.92 1018.35 1018.54 1018.63 1018.70 1019.00 1019.17 1019.62 1019.49 1019.52 1019.31 1018.42 1018.85 1018.54 1018.17 1018.06 1017.62 1017.35 1016.93 1016.81 1016.71 1016.53 1016.37 1016.29 1016.18 1016.06 1015.91 1015.85
1013.66 1014.33 1014.89 1015.12 1015.47 1015.84 1016.08 1016.32 1016.53 1016.68 1016.68 1017.25 1017.64 1017.80 1017.91 1018.15 1018.60 1018.88 1019.26 1019.33 1019.11 1018.51 1018.70 1018.71 1018.17 1017.98 1017.01 1016.77 1016.47 1016.02 1015.82 1015.71 1015.53 1015.33 1015.38 1015.45 1015.45 1015.48
1013.28 1013.65 1013.98 1014.09 1014.57 1015.07 1015.72 1016.24 1016.34 1016.39 1016.41 1016.68 1016.85 1016.86 1017.12 1017.38 1018.03 1018.22 1018.46 1018.67 1018.71 1018.34 1018.41 1018.66 1017.77 1017.45 1016.70 1016.26 1016.17 1015.85 1015.42 1015.51 1015.37 1015.12 1014.96 1014.74 1014.71 1014.73
1012.58 1012.95 1013.34 1013.56 1013.92 1014.54 1015.20 1015.93 1016.12 1016.09 1016.00 1016.23 1016.52 1016.61 1016.97 1017.19 1017.35 1017.84 1018.05 1018.49 1018.54 1018.19 1017.71 1018.00 1017.49 1017.20 1016.67 1016.08 1015.44 1015.17 1014.96 1015.06 1015.05 1014.73 1014.55 1014.33 1014.13 1013.91
1011.98 1012.31 1012.70 1013.02 1013.47 1014.04 1014.66 1015.35 1015.76 1015.90 1016.09 1016.22 1016.41 1016.42 1016.53 1016.76 1017.01 1017.28 1017.44 1018.00 1018.28 1018.18 1017.32 1017.62 1017.39 1017.31 1016.98 1015.95 1015.55 1014.94 1014.59 1014.40 1014.12 1013.96 1013.75 1013.53 1013.43 1013.54
1011.76 1012.12 1012.47 1012.90 1013.42 1013.77 1014.19 1014.78 1015.07 1015.24 1015.74 1016.12 1016.37 1016.65 1016.77 1016.87 1016.89 1016.91 1016.81 1017.22 1017.57 1017.52 1016.72 1017.02 1017.15 1017.19 1017.24 1016.69 1015.73 1014.80 1014.36 1013.91 1013.66 1013.39 1013.02 1012.83 1012.69 1012.64
1011.30 1011.77 1012.30 1012.96 1013.44 1013.80 1013.99 1014.20 1014.80 1015.18 1015.75 1016.17 1016.47 1016.70 1016.82 1016.77 1016.72 1016.60 1016.54 1016.55 1016.57 1016.46 1016.11 1016.57 1016.99 1016.91 1016.92 1016.74 1015.92 1014.45 1013.88 1013.45 1013.33 1013.06 1012.61 1012.25 1012.00 1011.64
1010.85 1011.37 1011.64 1012.32 1013.23 1013.56 1013.57 1013.88 1014.52 1015.07 1015.63 1016.10 1016.18 1016.34 1016.30 1016.30 1016.39 1016.51 1016.33 1016.22 1016.12 1015.92 1015.73 1015.90 1016.13 1016.19 1016.40 1016.10 1015.42 1014.42 1013.95 1013.18 1012.67 1012.49 1012.09 1011.77 1011.35 1010.83
1010.86 1011.68 1012.22 1012.85 1012.85 1013.02 1013.41 1013.75 1014.30 1014.75 1015.30 1015.85 1016.02 1015.99 1016.06 1016.18 1016.20 1016.40 1016.67 1016.50 1016.53 1016.06 1015.25 1015.18 1015.47 1015.71 1015.60 1014.95 1014.66 1014.01 1013.48 1013.49 1012.35 1012.03 1011.52 1010.94 1010.16 1009.48
1010.68 1011.94 1012.41 1013.38 1013.53 1013.30 1013.23 1013.52 1014.17 1014.60 1015.07 1015.53 1015.62 1015.81 1016.16 1016.52 1016.24 1016.27 1016.61 1016.71 1016.73 1016.42 1015.95 1015.00 1014.52 1014.68 1014.54 1014.28 1014.01 1013.24 1012.97 1012.69 1012.11 1011.61 1010.93 1010.10 1009.36 1008.77
1010.35 1011.47 1012.31 1012.85 1013.09 1013.21 1013.29 1013.38 1013.98 1014.33 1014.76 1015.03 1015.46 1015.67 1015.94 1016.28 1016.43 1016.33 1016.52 1016.69 1016.64 1016.27 1016.04 1015.53 1015.12 1014.68 1014.08 1013.11 1012.64 1012.61 1012.54 1012.40 1011.77 1011.27 1010.69 1009.80 1008.36 1007.76
1009.93 1010.85 1011.52 1012.21 1012.54 1012.83 1013.02 1012.98 1013.35 1013.75 1014.05 1014.47 1014.98 1015.29 1015.71 1016.00 1016.38 1016.35 1016.46 1016.48 1016.33 1016.13 1015.66 1015.35 1015.14 1015.09 1014.80 1014.09 1012.80 1012.13 1012.45 1012.04 1011.54 1010.94 1010.25 1009.34 1007.61 1006.47
1010.16 1010.66 1011.04 1011.62 1011.75 1012.49 1012.37 1012.36 1013.01 1013.50 1014.09 1014.48 1014.85 1015.09 1015.35 1015.69 1016.12 1016.21 1016.33 1016.43 1016.31 1016.01 1015.65 1015.03 1014.79 1014.59 1014.69 1014.18 1013.48 1012.34 1011.74 1011.69 1011.36 1010.61 1009.58 1008.50 1007.09 1005.66
1010.12 1010.42 1010.58 1010.89 1011.36 1011.79 1011.77 1012.21 1012.85 1013.31 1014.02 1014.48 1014.81 1015.03 1015.44 1015.52 1015.75 1015.98 1016.03 1016.03 1016.02 1015.93 1015.76 1015.03 1014.11 1013.66 1013.61 1013.56 1013.42 1012.77 1011.60 1011.15 1011.00 1010.47 1009.17 1007.69 1006.13 1004.64
1009.81 1009.82 1010.37 1010.71 1011.17 1011.05 1011.43 1012.36 1012.77 1013.30 1013.96 1014.29 1014.64 1015.02 1015.31 1015.44 1015.67 1015.75 1015.86 1015.90 1015.76 1015.68 1015.31 1014.54 1013.79 1013.51 1013.60 1013.69 1013.56 1013.18 1012.12 1010.90 1010.24 1009.60 1008.82 1008.21 1006.90 1004.95
1008.77 1009.49 1010.41 1010.53 1010.42 1010.73 1011.53 1012.15 1012.52 1013.30 1013.63 1014.03 1014.61 1014.71 1015.12 1015.24 1015.31 1015.51 1015.62 1015.53 1015.46 1015.25 1014.96 1014.42 1014.01 1013.78 1013.75 1013.69 1013.58 1013.20 1012.44 1011.38 1010.47 1009.29 1008.29 1007.67 1006.76 1005.74
Wind_Speed
5 5 3 2 2 2 2 3 5 3 2 3 2 2 3 4 6 6 6 10 11 11 10 11 11 12 12 13 12 12 13 13 13 12 12 12 13 12
4 6 4 2 2 1 2 3 1 4 2 4 2 2 1 1 4 5 6 8 9 10 11 12 12 13 13 12 12 13 15 15 15 15 14 13 13 12
4 6 6 5 3 3 2 1 2 3 3 1 2 1 2 2 3 3 4 5 4 9 9 11 12 12 10 11 11 12 12 13 14 15 15 14 14 14
7 6 7 4 5 4 3 4 3 4 3 3 2 1 2 1 3 3 3 3 4 6 7 7 7 7 7 7 7 7 9 10 11 12 13 14 14 15
8 7 7 6 5 4 5 5 3 3 3 2 1 1 2 1 2 2 2 3 2 6 7 7 3 3 4 7 8 8 8 9 9 9 10 12 13 15
8 9 8 8 8 7 6 6 4 4 3 2 2 2 2 1 1 1 3 2 3 2 4 6 3 3 7 7 8 9 10 10 9 9 9 10 11 12
10 8 7 8 12 9 5 6 6 5 4 3 3 2 2 1 2 1 3 2 3 3 2 3 1 3 5 6 8 10 9 10 10 10 10 11 11 11
9 6 7 10 11 13 13 11 10 6 5 4 3 3 3 2 2 4 3 1 3 1 1 4 1 4 5 4 9 10 10 9 10 10 11 11 10 11
9 10 8 7 9 6 9 12 12 12 9 7 6 5 4 5 4 3 4 4 5 4 3 4 2 4 6 5 12 12 12 13 13 13 9 10 12 13
10 10 10 9 8 8 7 6 7 6 7 6 6 5 5 4 6 5 4 3 2 4 5 4 3 4 4 4 12 14 13 13 15 14 14 14 12 11
9 9 10 9 10 12 9 8 6 5 4 7 8 7 5 7 6 3 3 2 3 4 2 3 3 3 2 4 6 12 13 12 14 14 14 14 13 14
6 7 11 9 11 14 9 8 6 6 5 4 3 2 4 3 4 6 4 4 3 2 3 3 2 1 4 3 4 5 5 11 15 13 15 14 14 5
6 5 4 9 11 15 10 7 7 5 4 4 3 1 1 3 3 3 5 4 3 4 4 3 2 1 3 4 4 4 4 6 6 6 12 14 14 11
7 4 4 9 11 11 9 7 7 6 3 4 3 2 2 2 2 3 4 5 5 6 4 5 3 4 3 3 5 4 4 5 4 6 6 8 12 15
4 7 10 9 6 5 9 11 10 4 4 3 4 3 3 3 2 2 3 2 3 4 4 3 5 3 4 5 5 4 2 4 4 4 5 6 8 8
9 5 5 5 5 7 5 5 4 4 5 3 3 3 1 1 1 1 1 2 1 4 7 3 6 6 3 5 4 6 5 3 4 7 8 8 10 10
9 3 3 1 2 2 3 4 4 4 4 3 3 2 1 1 1 1 1 1 1 2 4 5 5 6 6 6 4 5 4 4 5 8 10 12 11 11
5 4 4 4 4 4 4 4 4 5 4 4 3 3 3 3 2 0 1 2 2 3 3 3 3 5 5 5 12 5 3 3 6 9 10 11 13 11
4 5 5 5 5 4 4 4 4 4 4 4 4 4 4 2 2 1 1 1 3 2 4 2 2 1 3 4 5 5 4 4 5 9 9 10 16 14
2 4 5 5 5 5 5 4 3 4 3 4 4 4 4 3 2 2 1 2 2 3 4 3 2 3 3 4 3 5 5 4 5 9 10 12 14 22
5 4 4 5 4 5 5 5 5 5 4 4 3 3 3 3 2 2 2 4 3 1 4 5 4 5 3 2 4 5 5 6 6 8 12 12 13 13
5 5 4 5 5 6 6 5 5 5 4 3 2 3 3 3 3 2 1 2 2 3 4 5 5 3 1 1 3 5 7 5 11 13 15 14 14 14
5 5 5 6 5 6 5 5 5 4 4 3 4 4 4 3 2 2 2 2 3 4 2 4 4 3 2 2 3 4 7 10 8 10 9 17 23 23
Wind_Direction
181 183 182 188 194 191 159 155 153 188 276 310 293 278 256 215 217 205 220 237 237 243 247 253 256 258 257 254 258 261 262 261 255 253 257 262 272 280
179 184 192 171 192 187 173 162 127 137 191 204 263 284 313 276 247 219 233 244 254 250 253 255 251 253 259 260 256 257 258 259 259 251 244 248 254 259
182 191 202 168 179 187 179 110 151 150 175 299 234 287 306 279 322 329 280 260 261 259 263 265 267 272 274 274 277 280 274 272 270 267 264 252 247 246
198 195 216 173 202 197 191 200 188 172 149 210 206 329 242 276 265 284 288 264 256 274 271 262 262 268 263 267 285 290 284 280 273 266 264 263 260 256
190 194 207 188 203 200 202 200 196 168 163 158 167 125 283 313 324 340 314 311 289 300 315 326 2 336 331 325 308 291 278 275 272 264 258 260 261 262
199 200 191 189 195 205 206 206 180 167 175 166 165 209 197 286 286 294 314 248 295 315 289 264 271 300 291 283 279 284 285 286 282 277 281 276 262 258
205 206 204 201 203 194 184 204 173 175 175 181 185 196 216 247 247 318 267 276 275 237 276 283 277 300 292 301 290 282 276 277 281 283 280 263 259 268
194 184 208 211 217 208 207 189 182 178 186 168 188 193 252 213 190 241 246 270 299 193 219 280 185 274 270 264 259 267 272 266 255 263 270 269 271 265
180 202 210 211 208 199 210 200 203 188 171 173 191 198 230 198 180 231 220 208 221 265 178 272 212 264 272 273 281 285 291 294 301 301 273 256 256 255
191 206 207 211 198 178 167 185 205 210 202 192 209 219 217 183 198 199 210 217 277 263 175 221 233 244 267 265 269 271 266 272 275 280 284 286 278 259
194 194 204 203 180 176 169 190 207 226 210 239 245 245 276 257 201 164 235 170 264 265 209 188 262 268 276 262 261 254 254 254 262 264 270 271 270 276
187 213 200 191 174 172 178 180 193 234 197 223 248 272 249 267 208 197 182 214 191 287 246 177 258 201 313 271 292 283 281 271 268 269 269 269 263 268
195 196 184 177 179 186 185 173 200 160 197 196 175 239 305 286 275 227 197 179 191 232 239 164 242 281 206 287 282 267 242 264 265 278 278 270 263 248
185 173 170 185 192 192 184 200 154 145 160 163 171 210 233 253 256 260 221 219 220 219 267 163 237 194 204 267 256 286 269 257 237 258 266 259 259 260
154 174 160 180 187 172 175 161 163 170 155 173 203 203 198 208 266 293 290 292 285 261 253 213 202 233 207 232 265 268 300 282 272 270 278 271 273 275
106 102 133 130 119 122 111 138 154 159 169 180 193 198 216 226 207 158 273 334 348 304 307 241 212 197 258 238 221 272 273 265 284 293 283 282 279 279
111 109 112 154 190 150 123 137 159 159 171 188 185 179 220 263 224 153 223 305 224 274 295 307 307 225 226 226 273 253 273 283 286 292 301 296 292 286
120 139 174 192 199 195 179 158 172 189 198 183 187 176 203 205 237 236 185 208 255 287 278 270 314 336 338 297 213 265 290 260 298 298 296 294 294 294
152 172 168 184 196 191 181 173 178 194 169 179 188 180 182 171 192 234 250 268 292 272 274 244 278 173 310 291 284 235 231 292 295 305 303 297 300 302
114 163 171 179 175 192 192 154 143 138 142 173 163 163 169 159 180 211 228 254 276 288 299 299 244 228 198 243 283 272 269 285 311 305 304 300 291 299
169 173 168 168 174 169 138 126 142 141 148 149 161 154 165 151 177 221 265 265 253 271 293 288 266 275 236 298 319 303 286 279 275 297 307 307 316 316
179 156 166 160 158 144 131 144 133 134 152 150 152 173 187 164 182 215 234 282 295 255 256 271 309 350 30 201 273 287 307 306 320 304 303 323 328 322
158 155 167 160 147 128 133 143 141 161 170 172 197 184 173 166 173 201 235 262 274 296 270 303 330 351 280 258 290 296 299 317 324 325 326 326 329 327